www.pogodaiklimat.ru
ПОГОДА в Вашингтоне
Время
и дата
14:56 15.06
15:52 15.06
16:52 15.06
17:52 15.06
18:52 15.06
19:52 15.06
20:52 15.06
21:52 15.06
22:52 15.06
23:52 15.06
00:52 16.06
01:52 16.06
02:52 16.06
03:52 16.06
04:52 16.06
05:52 16.06
06:52 16.06
07:52 16.06
08:52 16.06
09:52 16.06
10:52 16.06
11:52 16.06
12:52 16.06
13:52 16.06
14:52 16.06
15:52 16.06
16:52 16.06
17:52 16.06
18:52 16.06
19:52 16.06
20:52 16.06
21:52 16.06
22:52 16.06
23:52 16.06
00:52 17.06
01:52 17.06
02:52 17.06
03:52 17.06
04:52 17.06
05:52 17.06
06:52 17.06
07:52 17.06
08:52 17.06
09:52 17.06
10:52 17.06
11:52 17.06
12:52 17.06
13:52 17.06
Ветер
(напр.,м/с)
Видим. Явления Облачность Т
(С)
Тd
(С)
f
(%)
Тe
(С)
Тes
(С)
Комфортность P
(гПа)
Po
(гПа)
Тmin
(С)
Tmax
(С)
R
(мм)
R24
(мм)
S
(см)
С 5 16 км 2/2 1800 м +27.8 +11.7 37 +29 +36 жарко 1006.4
СЗ 4 16 км 2/2 1950 м +28.3 +11.7 36 +29 +36 жарко 1017.6 1006.4
С 4
{8}
16 км 2/2 1950 m
[Ac]
+28.3 +11.1 34 +29 +34 жарко 1017.5 1006.4
СЗ 3 16 км 2/2 1950 m
[Ci]
+27.8 +10.6 34 +28 +32 жарко 1017.7 1006.4
С 3 16 км 2/0 7500 m
[Ci]
+26.7 +10.0 35 +27 +29 жарко 1018.2 1007.1 +26.1 +28.9
штиль 0 16 км 2/0 7500 m
[Ci]
+23.9 +11.1 45 +25 +26 комфорт 1018.5 1007.4
штиль 0 16 км 2/0 7500 m
[Ci]
+19.4 +11.7 61 +20 +20 1019.1 1007.8
штиль 0 16 км 2/0 7500 m
[Ci]
+18.3 +11.7 65 +19 +19 1019.3 1008.1
штиль 0 16 км ясно +17.8 +11.7 67 +18 +18 1019.9 1008.8
штиль 0 16 км 2/0 7500 m
[Ci]
+16.7 +11.7 72 +17 +17 1020.0 1008.8
штиль 0 16 км 2/0 7500 m
[Ci]
+15.6 +11.7 78 +15 +15 1020.2 1009.1 +15.6 +26.7
штиль 0 16 км ясно +15.0 +11.7 81 +15 +15 1020.3 1009.1
штиль 0 16 км ясно +14.4 +12.2 87 +14 +14 1020.5 1009.4
СЗ 2 16 км ясно +14.4 +12.2 87 +14 +14 1020.9 1009.8
штиль 0 16 км 5/0 7500 m
[Ci]
+13.3 +11.7 90 +13 +13 1021.5 1010.1
штиль 0 16 км 8/0 7500 m
[Ci]
+17.2 +13.3 78 +17 +17 1022.1 1010.8
СЗ 2 16 км 8/0 7500 m
[Ci]
+20.6 +14.4 68 +24 +25 комфорт 1022.8 1011.4 +13.3 +20.6
нст 3 16 км 8/0 7500 m
[Ci]
+22.8 +14.4 59 +26 +29 жарко 1023.1 1011.8
ЮВ 3 16 км 8/0 7500 m
[Ci]
+25.0 +15.0 54 +28 +33 жарко 1022.7 1011.4
нст 3 16 км 8/2 1200 m
[Ci]
+27.2 +13.9 44 +29 +36 жарко 1022.9 1011.4
ЮВ 3 16 км 8/2 1500 m
[Ci]
+26.7 +13.3 44 +29 +38 жарко 1022.5 1011.1
Ю 4
{9}
16 км 8/2 1650 m
[Ci]
+28.3 +13.9 41 +30 +39 жарко 1022.4 1011.1
Ю 5
{9}
16 км 8/2 1800 m
[Ci]
+29.4 +15.0 42 +32 +39 душно 1022.0 1010.8 +20.6 +29.4
Ю 5
{8}
16 км 8/5 1800 m
[Ac Ci]
+28.9 +14.4 41 +31 +35 жарко 1021.5 1010.4
Ю 5
{9}
16 км 8/8 1800 m
[Ci]
+30.0 +15.0 40 +32 +34 жарко 1021.0 1009.8
Ю 5
{9}
16 км 5/5 1800 m
[Ci]
+29.4 +15.0 42 +32 +35 душно 1020.6 1009.4
Ю 6
{8}
16 км 5/5 1800 м +29.4 +16.1 45 +33 +34 душно 1020.0 1008.8
ЮВ 5 16 км 8/5 1800 m
[Ci]
+28.3 +15.6 46 +31 +32 душно 1020.0 1008.8
Ю 5
{7}
16 км 10/0 2100 m
[Ac Ci]
+27.2 +15.6 49 +30 +31 душно 1020.1 1008.8 +27.2 +30.0
Ю 4
{9}
16 км 10/0 2100 m
[Ac Ci]
+26.1 +15.0 50 +29 +29 жарко 1020.2 1009.1
Ю 4 16 км 8/0 2100 m
[Ac]
+25.0 +14.4 52 +28 +28 жарко 1020.7 1009.4
ЮВ 5 16 км 2/0 2100 m
[Ac]
+23.9 +15.6 60 +27 +27 жарко 1020.8 1009.4
Ю 3 16 км ясно +23.3 +16.1 64 +28 +28 душно 1021.5 1010.1
Ю 3 16 км ясно +22.8 +15.0 61 +27 +27 душно 1021.3 1010.1
Ю 3 16 км ясно +22.2 +13.9 59 +25 +25 комфорт 1021.4 1010.1 +22.2 +27.2
Ю 3 16 км ясно +21.1 +13.9 63 +24 +24 комфорт 1021.6 1010.4
Ю 3 16 км ясно +20.6 +13.9 65 +23 +23 комфорт 1021.5 1010.1
Ю 3 16 км ясно +20.0 +13.9 68 +22 +22 комфорт 1021.5 1010.1
Ю 3 16 км 8/0 2400 m
[Ac]
+20.6 +13.9 65 +23 +23 комфорт 1021.7 1010.4
Ю 3 16 км 2/0 2400 m
[Ac Ci]
+20.6 +14.4 68 +24 +24 комфорт 1021.7 1010.4
Ю 4
{9}
16 км 2/0 2400 m
[Ac Ci]
+22.2 +16.1 68 +26 +27 душно 1021.9 1010.4 +20.0 +22.2
Ю 5
{9}
16 км 2/0 2400 m
[Ac Ci]
+23.9 +16.7 64 +27 +29 жарко 1022.2 1011.1
ЮЗ 5 16 км 8/0 2250 m
[Ac]
+25.6 +17.2 60 +30 +31 душно 1022.1 1010.8
Ю 5 16 км 2/0 2250 m
[Ac]
+27.2 +18.3 58 +32 +37 очень
душно
1021.5 1010.1
нст 3 16 км 5/0 2250 m
[Ac]
+28.3 +18.3 55 +33 +42 очень
душно
1021.3 1010.1
Ю 4 16 км 2/0 2250 m
[Ac Ci]
+29.4 +19.4 55 +35 +46 очень
душно
1020.7 1009.4
нст 2 16 км 2/0 2250 m
[Ac Ci]
+30.6 +20.0 53 +37 +55 опасность
солнечного
удара
1020.2 1009.1 +22.2 +31.1
нст 3 16 км 8/2 1350 m
[Ac Ci]
+31.1 +20.6 54 +38 +47 очень
душно
1020.1 1008.8
Местоположение метеостанции Washington-Dulles International Airport: широта 38.9347 долгота -77.4475 высота над уровнем моря 95 м.
В архиве по умолчанию представлена погода в Вашингтоне за последние 1-2 суток. Обновление информации о фактической погоде в базе происходит ежечасно! Архивные данные за месяц целиком и за предыдущие месяцы Вы можете получить, выбрав интересующий диапазон дат из раскрывающегося списка и нажав кнопку "Ввод!".
Внимание! Архив погоды МЕТАР в базе сайта по станциям, не включенным в климатический монитор, хранится не более 60 дней. Нет смысла пытаться выбрать более раннюю дату.
*Определитесь, кто Вы:
Внимание! Время в таблицах - местное (без учета летнего времени). Для получения всемирного времени необходимо вычесть поправку, которая равна -5 ч.
Смотрите также архив погоды в соседних городах и на ближайших метеорологических станциях:
Партнеры нашего сайта:      
Пояснения к столбцам:
  • Ветер - указаны скорость ветра в м/с - средняя за 10 мин, порывы в срок и между сроками (в фигурных скобках) и направление, откуда дует ветер: С - северный,
  • СВ - северо-восточный, В - восточный, ЮВ - юго-восточный, Ю - южный, ЮЗ - юго-западный, З - западный, СЗ - северо-западный.
  • Видимость - горизонтальная дальность видимости в метрах или километрах. При видимости от 1 до 10 км при отсутствии осадков обычно наблюдается дымка, при ухудшении видимости до 1 км и менее - туман. В сухую погоду видимость может ухудшаться дымом, пылью или мглою.
  • Явления - указаны атмосферные явления, наблюдавшиеся в срок или в последний час перед сроком; фигурными скобками обозначены явления, наблюдавшиеся между сроками (за 1-3 часа до срока); квадратными скобками обозначены град или гололедные отложения с указанием их диаметра в мм.
  • Облачность - указаны через наклонную черту общая и нижняя облачность в баллах и высота нижней границы облаков в метрах; квадратными скобками обозначены формы облаков: Ci - перистые, Cs - перисто-слоистые, Cc - перисто-кучевые, Ac - высококучевые, As - высокослоистые, Sc - слоисто-кучевые, Ns - слоисто-дождевые, Cu - кучевые, Cb - кучево-дождевые. Подробнее классификацию облаков см. в Атласе облаков (PDF).
  • T - Температура воздуха - температура, измеренная на высоте 2 м над землей.
  • Td - Температура точки росы - температура, при понижении до которой содержащийся в воздухе водяной пар достигнет насыщения.
  • f - Относительная влажность воздуха - влажноcть воздуха, измеренная на высоте 2 м над землей.
  • Te - Эффективная температура - температура, которую ощущает одетый по сезону человек в тени. Характеристика душности погоды. При расчете учитывается влияние влажности воздуха и скорости ветра на теплоощущения человека.
  • Tes - Эффективная температура на солнце - температура, которую ощущает человек, с поправкой на солнечный нагрев. Характеристика знойности погоды. Зависит от высоты солнца над горизонтом, облачности и скорости ветра. Ночью, в пасмурную погоду, а также при ветре 12 м/с и более поправка равна нулю.
  • P - Атмосферное давление - приведенное к уровню моря атмосферное давление.
  • Po - Атмосферное давление - измеренное на уровне метеостанции атмосферное давление.
  • Tmin - Минимальная температура - минимум температуры воздуха на высоте 2 м над землей.
  • Tmax - Максимальная температура - максимум температуры воздуха на высоте 2 м над землей.
  • R - Количество осадков - Количество выпавших осадков за период времени, мм. При наведении курсора мыши на число - период времени, за который выпало указанное количество осадков.
  • R24 - Количество осадков - Количество выпавших осадков за 24 часа, мм.
  • S - Снежный покров - Высота снежного покрова, см. При наведении курсора мыши на число - состояние снежного покрова и степень покрытия местности в баллах.